contact:dominique.lefevre@mio.osupytheas.fr, maurice.libes@osupytheas.fr
Project:EMSO Ligure-ouest http://www.emso-fr.org/EMSO-France
Sensor Aquadopp, line 13 Serial AQD14315 
DOI : "https://doi.org/10.17882/74513; https://doi.org/10.17882/83244" 
Title:EMSO Ligure Ouest : Data ligne ALBATROSS capteur AQUADOPP - deploiement 2021
Id,Date,Profondeur,Latitude,Longitude,X_East,Y_North,Z_Up,Amplitude_X,Amplitude_Y,Amplitude_Z,Batterie,SoundSpeed,Heading,Pitch,Roll,Pressure,Temperature,Speed,Direction
, , m, degrees North, degrees East, m.s-1, m.s-1,m.s-1, 1, 1, 1, Volt, m.s-1, degree, degree, degree, dbar, degree_C, m.s-1, degree
13,2021-11-05T22:00:00,2400.0,42.79,6.0312,0.016,0.005,-0.009,57.0,53.0,55.0,12.7,1504.8,38.8,0.1,-0.4,2394.857,13.33,0.016,72.6
13,2021-11-05T22:30:00,2400.0,42.79,6.0312,0.025,-0.007,-0.023,59.0,53.0,61.0,12.6,1504.8,39.5,-0.1,-0.3,2394.851,13.33,0.025,105.6
13,2021-11-05T23:00:00,2400.0,42.79,6.0312,0.027,-0.016,-0.019,59.0,53.0,53.0,12.7,1504.8,39.5,0.0,-0.3,2394.816,13.33,0.031,120.7
13,2021-11-05T23:30:00,2400.0,42.79,6.0312,0.0,-0.012,0.013,59.0,52.0,57.0,12.7,1504.8,38.6,-0.2,-0.3,2394.748,13.33,0.012,180.0
13,2021-11-06T00:00:00,2400.0,42.79,6.0312,0.001,0.002,0.001,59.0,52.0,52.0,12.6,1504.8,35.8,0.0,-0.5,2394.735,13.33,0.002,26.6
13,2021-11-06T00:30:00,2400.0,42.79,6.0312,0.018,-0.014,-0.017,61.0,54.0,58.0,12.7,1504.8,38.5,0.0,-0.3,2394.756,13.33,0.022,127.9
13,2021-11-06T01:00:00,2400.0,42.79,6.0312,0.022,-0.013,0.013,61.0,53.0,55.0,12.7,1504.8,40.5,0.1,-0.3,2394.675,13.33,0.025,120.6
13,2021-11-06T01:30:00,2400.0,42.79,6.0312,0.044,-0.021,0.026,61.0,53.0,56.0,12.7,1504.8,44.9,-0.2,-0.2,2394.691,13.33,0.048,115.5
13,2021-11-06T02:00:00,2400.0,42.79,6.0312,0.024,-0.001,-0.022,59.0,52.0,53.0,12.7,1504.8,45.1,0.0,-0.3,2394.679,13.33,0.024,92.4
13,2021-11-06T02:30:00,2400.0,42.79,6.0312,0.026,-0.003,0.013,62.0,52.0,54.0,12.6,1504.8,48.0,-0.2,-0.3,2394.695,13.33,0.026,96.6
13,2021-11-06T03:00:00,2400.0,42.79,6.0312,0.028,-0.003,-0.01,57.0,53.0,53.0,12.7,1504.8,51.0,-0.2,-0.4,2394.689,13.33,0.028,96.1
13,2021-11-06T03:30:00,2400.0,42.79,6.0312,0.029,-0.01,0.005,61.0,52.0,56.0,12.6,1504.8,46.9,-0.2,-0.2,2394.703,13.33,0.03,109.0
13,2021-11-06T04:00:00,2400.0,42.79,6.0312,0.049,0.012,-0.027,58.0,53.0,55.0,12.6,1504.8,52.5,-0.2,-0.3,2394.738,13.33,0.05,76.2
13,2021-11-06T04:30:00,2400.0,42.79,6.0312,0.025,0.005,0.002,60.0,54.0,56.0,12.7,1504.8,48.2,0.0,-0.3,2394.759,13.33,0.025,78.7
13,2021-11-06T05:00:00,2400.0,42.79,6.0312,0.032,0.016,0.002,57.0,53.0,53.0,12.6,1504.8,49.9,0.0,-0.4,2394.816,13.33,0.035,63.4
13,2021-11-06T05:30:00,2400.0,42.79,6.0312,0.049,-0.02,-0.01,59.0,51.0,56.0,12.7,1504.8,51.8,-0.1,-0.3,2394.858,13.33,0.052,112.2
13,2021-11-06T06:00:00,2400.0,42.79,6.0312,0.037,0.005,-0.004,61.0,53.0,54.0,12.7,1504.8,49.1,-0.2,-0.3,2394.906,13.33,0.037,82.3
13,2021-11-06T06:30:00,2400.0,42.79,6.0312,0.019,0.014,-0.008,60.0,53.0,56.0,12.7,1504.8,47.3,-0.1,-0.2,2394.933,13.33,0.023,53.6
13,2021-11-06T07:00:00,2400.0,42.79,6.0312,0.037,-0.007,0.005,61.0,55.0,58.0,12.7,1504.8,49.0,-0.2,-0.3,2394.888,13.33,0.037,100.7
13,2021-11-06T07:30:00,2400.0,42.79,6.0312,0.047,-0.017,0.026,60.0,51.0,53.0,12.7,1504.8,54.2,-0.2,-0.3,2394.964,13.33,0.049,109.9
13,2021-11-06T08:00:00,2400.0,42.79,6.0312,0.035,-0.009,0.007,58.0,54.0,54.0,12.7,1504.8,55.8,-0.2,-0.3,2394.979,13.33,0.036,104.4
13,2021-11-06T08:30:00,2400.0,42.79,6.0312,0.044,0.001,0.004,61.0,54.0,56.0,12.7,1504.8,52.7,-0.3,-0.3,2394.951,13.33,0.044,88.7
13,2021-11-06T09:00:00,2400.0,42.79,6.0312,0.038,0.005,-0.021,59.0,52.0,55.0,12.6,1504.8,52.5,-0.2,-0.3,2394.967,13.33,0.038,82.5
13,2021-11-06T09:30:00,2400.0,42.79,6.0312,0.033,0.005,0.023,59.0,55.0,55.0,12.7,1504.8,50.0,-0.2,-0.4,2394.925,13.33,0.033,81.4
13,2021-11-06T10:00:00,2400.0,42.79,6.0312,0.043,-0.015,-0.011,59.0,55.0,55.0,12.7,1504.8,55.0,-0.1,-0.3,2394.915,13.33,0.045,109.2
13,2021-11-06T10:30:00,2400.0,42.79,6.0312,0.031,-0.012,0.02,61.0,56.0,57.0,12.6,1504.8,53.0,-0.3,-0.3,2394.903,13.33,0.033,111.2
13,2021-11-06T11:00:00,2400.0,42.79,6.0312,0.045,0.004,-0.001,59.0,53.0,56.0,12.7,1504.8,52.8,-0.1,-0.3,2394.923,13.33,0.045,84.9
13,2021-11-06T11:30:00,2400.0,42.79,6.0312,0.037,-0.006,-0.008,61.0,52.0,56.0,12.7,1504.8,55.6,-0.2,-0.3,2394.872,13.33,0.037,99.2
13,2021-11-06T12:00:00,2400.0,42.79,6.0312,0.062,-0.02,-0.012,60.0,55.0,57.0,12.6,1504.8,54.8,-0.1,-0.3,2394.835,13.33,0.065,107.9
13,2021-11-06T12:30:00,2400.0,42.79,6.0312,0.027,-0.002,-0.014,60.0,55.0,57.0,12.7,1504.8,54.4,-0.2,-0.3,2394.84,13.33,0.027,94.2
13,2021-11-06T13:00:00,2400.0,42.79,6.0312,0.027,-0.008,0.022,62.0,53.0,55.0,12.7,1504.8,51.2,0.0,-0.2,2394.803,13.33,0.028,106.5
13,2021-11-06T13:30:00,2400.0,42.79,6.0312,0.016,0.004,-0.011,57.0,53.0,53.0,12.7,1504.8,51.9,0.0,-0.3,2394.762,13.33,0.016,76.0
13,2021-11-06T14:00:00,2400.0,42.79,6.0312,0.033,0.008,-0.019,60.0,51.0,55.0,12.6,1504.8,54.0,-0.2,-0.2,2394.813,13.33,0.033,76.4
13,2021-11-06T14:30:00,2400.0,42.79,6.0312,0.034,-0.031,-0.013,58.0,52.0,55.0,12.7,1504.8,55.3,-0.3,-0.2,2394.761,13.33,0.046,132.4
13,2021-11-06T15:00:00,2400.0,42.79,6.0312,0.033,-0.01,-0.012,59.0,54.0,55.0,12.7,1504.8,52.0,-0.3,-0.2,2394.741,13.33,0.034,106.9
13,2021-11-06T15:30:00,2400.0,42.79,6.0312,0.022,0.003,-0.03,60.0,52.0,55.0,12.7,1504.8,54.1,-0.2,-0.2,2394.742,13.33,0.022,82.2
13,2021-11-06T16:00:00,2400.0,42.79,6.0312,0.038,0.021,-0.043,59.0,54.0,55.0,12.7,1504.8,54.4,0.0,-0.2,2394.776,13.33,0.043,61.1
13,2021-11-06T16:30:00,2400.0,42.79,6.0312,0.031,0.001,0.011,62.0,53.0,56.0,12.7,1504.8,52.6,-0.2,-0.2,2394.831,13.33,0.031,88.2
13,2021-11-06T17:00:00,2400.0,42.79,6.0312,0.028,0.008,0.003,60.0,54.0,55.0,12.7,1504.8,58.7,-0.1,-0.3,2394.807,13.33,0.029,74.1
13,2021-11-06T17:30:00,2400.0,42.79,6.0312,0.041,0.012,-0.021,60.0,53.0,57.0,12.7,1504.8,57.3,-0.1,-0.2,2394.801,13.33,0.042,73.7
13,2021-11-06T18:00:00,2400.0,42.79,6.0312,0.033,0.006,-0.001,61.0,54.0,56.0,12.7,1504.8,59.5,-0.1,-0.3,2394.844,13.33,0.033,79.7
13,2021-11-06T18:30:00,2400.0,42.79,6.0312,0.056,0.0,-0.012,61.0,56.0,55.0,12.6,1504.8,60.6,0.0,-0.3,2394.914,13.33,0.056,90.0
13,2021-11-06T19:00:00,2400.0,42.79,6.0312,0.032,-0.002,-0.011,59.0,53.0,55.0,12.6,1504.8,59.4,-0.1,-0.1,2394.932,13.33,0.032,93.6
13,2021-11-06T19:30:00,2400.0,42.79,6.0312,0.026,0.004,0.033,57.0,52.0,55.0,12.7,1504.8,59.7,0.1,-0.4,2394.927,13.33,0.026,81.3
13,2021-11-06T20:00:00,2400.0,42.79,6.0312,0.044,-0.007,-0.027,60.0,54.0,56.0,12.7,1504.8,56.8,-0.4,-0.2,2394.899,13.33,0.044,99.0
13,2021-11-06T20:30:00,2400.0,42.79,6.0312,0.056,-0.005,0.002,60.0,54.0,55.0,12.7,1504.8,54.9,-0.5,-0.3,2394.949,13.33,0.056,95.1
13,2021-11-06T21:00:00,2400.0,42.79,6.0312,0.068,0.008,-0.046,62.0,52.0,55.0,12.7,1504.8,49.7,-0.3,-0.3,2394.884,13.33,0.068,83.3
13,2021-11-06T21:30:00,2400.0,42.79,6.0312,0.044,0.007,-0.019,59.0,52.0,57.0,12.7,1504.8,49.6,-0.6,-0.3,2394.913,13.33,0.044,81.0
